EHI
0 0 0 0 0 0 0 0 0 0 0 0 0 0 0 0 0 0 0 0 0 0 0 0 0 0 0 0 0 0 0 0 0 0 0 0 0 0
0 0 0 0 0 0 0 0 0 0 0 0 0 0 0 0 0 0 0 0 0 0 0 0 0 0 0 0 0 0 0 0 0 0 0 0 0 0
0 0 0 0 0 0 0 0 0 0 0 0 0 0 0 0 0 0 0 0 0 0 0 0 0 0 0 0 0 0 0 0 0 0 0 0 0 0
0 0 0 0 0 0 0 0 0 0 0 0 0 0 0 0 0 0 0 0 0 0 0 0 0 0 0 0 0 0 0 0 0 0 0 0 0 0
0 0 0 0 0 0 0 0 0 0 0 0 0 0 0 0 0 0 0 0 0 0 0 0 0 0 0 0 0 0 0 0 0 0 0 0 0 0
0 0 0 0 0 0 0 0 0 0 0 0 0 0 0 0 0 0 0 0 0 0 0 0 0 0 0 0 0 0 0 0 0 0 0 0 0 0
0 0 0 0 0 0 0 0 0 0 0 0 0 0 0 0 0 0 0 0 0 0 0 0 0 0 0 0 0 0 0 0 0 0 0 0 0 0
0 0 0 0 0 0 0 0 0 0 0 0 0 0 0 0 0 0 0 0 0 0 0 0 0 0 0 0 0 0 0 0 0 0 0 0 0 0
0 0 0 0 0 0 0 0 0 0 0 0 0 0 0 0 0 0 0 0 0 0 0 0 0 0 0 0 0 0 0 0 0 0 0 0 0 0
0 0 0 0 0 0 0 0 0 0 0 0 0 0 0 0 0 0 0 0 0 0 0 0 0 0 0 0 0 0 0 0 0 0 0 0 0 0
0 0 0 0 0 0 0 0 0 0 0 0 0 0 0 0 0 0 0 0 0 0 0 0 0 0 0 0 0 0 0 0 0 0 0 0 0 0
0 0 0 0 0 0 0 0 0 0 0 0 0 0 0 0 0 0 0 0 0 0 0 0 0 0 0 0 0 0 0 0 0 0 0 0 0 0
0 0 0 0 0 0 0 0 0 0 0 0 0 0 0 0 0 0 0 0 0 0 0 0 0 0 0 0 0 0 0 0 0 0 0 0 0 0
0 0 0 0 0 0 0 0 0 0 0 0 0 0 0 0 0 0 0 0 0 0 0 0 0 0 0 0 0 0 0 0 0 0 0 0 0 0
0 0 0 0 0 0 0 0 0 0 0 0 0 0 0 0 0 0 0 0 0 0 0 0 0 0 0 0 0 0 0 0 0 0 0 0 0 0
0 0 0 0 0 0 0 0 0 0 0 0 0 0 0 0 0 0 0 0 0 0 0 0 0 0 0 0 0 0 0 0 0 0 0 0 0 0
0 0 0 0 0 0 0 0 0 0 0 0 0 0 0 0 0 0 0 0 0 0 0 0 0 0 0 0 0 0 0 0 0 0 0 0 0 0
0 0 0 0 0 0 0 0 0 0 0 0 0 0 0 0 0 0 0 0 0 0 0 0 0 0 0 0 0 0 0 0 0 0 0 0 0 0
0 0 0 0 0 0 0 0 0 0 0 0 0 0 0 0 0 0 0 0 0 0 0 0 0 0 0 0 0 0 0 0 0 0 0 0 0 0
0 0 0 0 0 0 0 0 0 0 0 0 0 0 0 0 0 0 0 0 0 0 0 0 0 0 0 0 0 0 0 0 0 0 0 0 0 0
0 0 0 0 0 0 0 0 0 0 0 0 0 0 0 0 0 0 0 0 0 0 0 0 0 0 0 0 0 0 0 0 0 0 0 0 0 0
0 0 0 0 0 0 0 0 0 0 0 0 0 0 0 0 0 0 0 0 0 0 0 0 0 0 0 0 0 0 0 0 0 0 0 0 0 0
0 0 0 0 0 0 0 0 0 0 0 0 0 0 0 0 0 0 0 0 0 0 0 0 0 0 0 0 0 0 0 0 0 0 0 0 0 0
Wind_Speed
6 6 5 4 4 3 3 4 4 4 4 3 3 4 3 3 2 4 4 4 4 4 4 3 3 3 3 3 3 4 4 4 4 4 5 6 6 7
5 6 6 4 4 4 4 4 4 4 3 3 2 2 3 2 4 5 4 4 5 5 5 4 4 4 4 4 4 4 4 4 4 5 5 6 6 6
7 7 7 6 5 5 5 4 4 4 4 3 2 3 4 4 3 4 4 4 4 5 6 6 5 5 5 4 4 4 4 4 5 5 5 6 7 7
8 8 8 6 7 6 5 5 5 4 4 5 3 3 4 5 5 5 4 4 4 5 6 6 6 6 5 5 5 4 4 4 5 5 5 6 7 7
9 9 9 8 8 6 7 6 5 4 5 5 4 3 3 4 5 4 5 4 4 4 5 6 6 7 7 6 5 5 5 5 5 5 5 6 7 7
9 9 9 9 9 8 7 7 6 5 5 5 4 4 4 4 4 4 4 4 3 3 4 4 6 6 6 6 6 5 5 5 6 6 6 6 7 7
9 9 9 9 10 8 7 7 6 6 5 5 5 4 4 4 5 4 4 3 3 3 3 3 4 4 5 6 6 6 6 6 6 6 7 7 7 8
9 9 9 9 10 12 11 10 8 8 7 6 5 6 6 5 4 4 4 4 4 2 3 4 3 4 4 4 5 6 7 7 7 7 7 7 7 8
9 8 7 7 10 9 10 10 10 10 10 8 7 7 7 6 6 6 5 5 4 3 3 4 4 4 3 4 5 6 7 8 8 8 7 7 8 8
9 9 9 8 8 9 8 8 8 9 10 9 8 8 6 6 6 6 5 4 4 3 4 4 4 4 4 4 5 6 7 7 7 7 8 8 8 9
8 8 9 9 10 11 9 9 8 7 7 8 8 8 7 7 6 4 4 4 4 4 3 3 3 3 4 4 3 5 6 7 7 8 8 9 9 9
6 7 9 11 11 12 10 9 9 8 6 5 6 7 7 8 9 7 6 6 4 3 3 3 2 2 3 3 3 3 4 6 8 8 9 9 8 6
5 5 6 10 11 12 11 9 9 7 6 6 5 5 5 5 6 6 5 5 5 4 3 3 3 3 3 3 3 3 4 4 5 6 7 9 8 6
4 3 4 7 9 10 9 8 9 7 5 5 5 5 5 4 4 4 4 3 3 4 4 4 3 3 3 3 4 3 4 4 4 4 4 6 7 8
2 3 3 5 6 6 7 7 7 5 5 5 6 5 4 4 3 3 3 2 2 3 4 5 4 4 4 4 4 3 4 4 4 4 4 4 5 4
1 1 2 3 2 2 3 4 3 4 4 5 4 4 3 3 3 3 3 3 3 3 3 4 5 5 5 5 4 5 4 4 4 4 4 4 5 5
1 1 1 1 1 1 1 1 2 2 3 3 4 4 3 3 3 3 3 3 4 4 3 2 2 2 4 4 4 5 4 4 4 4 4 5 5 5
1 1 1 1 1 1 1 1 1 2 2 3 3 3 3 4 4 3 3 4 4 4 4 3 2 2 2 3 5 5 4 4 4 4 4 5 5 4
1 0 0 0 0 1 1 1 2 2 2 2 2 3 3 3 3 4 4 4 4 4 3 3 3 3 4 4 3 3 4 3 3 3 4 4 5 5
1 1 0 0 0 1 1 1 2 2 2 2 2 3 3 3 3 3 4 4 4 3 3 3 3 4 4 4 3 3 4 4 4 4 4 4 4 5
2 1 1 1 1 1 1 1 2 2 2 2 2 3 3 3 3 3 3 4 4 4 4 4 3 3 2 2 3 3 3 4 5 4 4 4 4 4
2 1 1 1 1 1 1 1 2 2 2 2 2 3 3 3 3 4 4 4 4 4 4 3 2 2 3 4 4 4 4 3 3 5 6 6 4 4
3 2 1 1 1 1 1 1 2 2 2 2 2 3 3 3 3 3 4 4 3 4 3 3 2 2 3 4 4 4 4 4 3 3 3 5 8 9
Wind_Direction
220 221 222 222 217 225 223 219 220 218 214 199 198 203 204 211 188 214 218 217 230 232 238 249 247 243 253 268 280 285 290 290 295 298 304 306 302 299
218 220 221 222 216 217 222 226 234 229 225 207 219 217 221 237 220 226 228 223 226 232 236 241 247 241 246 255 271 281 287 288 289 292 296 299 300 296
218 220 222 221 217 213 214 219 227 234 232 234 243 226 228 230 223 228 227 225 224 233 237 239 243 242 245 253 259 269 277 282 283 285 290 295 297 298
219 220 222 220 220 217 214 217 222 227 229 232 233 230 231 229 226 231 233 234 231 231 238 239 240 239 239 245 246 253 266 275 279 282 286 289 293 296
222 221 222 220 220 218 217 217 220 224 227 226 232 231 233 226 227 230 235 234 241 229 228 232 236 238 237 239 242 247 256 263 269 274 280 284 285 288
227 225 225 224 220 218 219 218 216 220 220 217 223 225 228 228 223 222 231 230 237 236 233 236 235 233 234 241 243 246 249 255 263 269 274 278 282 284
227 227 228 230 228 223 220 215 211 216 216 213 218 228 226 216 220 218 233 240 243 227 235 236 234 231 229 230 233 243 250 252 258 264 268 274 280 282
228 229 228 227 224 226 228 228 224 217 216 216 222 222 227 227 226 223 221 234 238 212 242 248 238 237 239 238 242 243 246 253 257 259 264 270 276 280
227 228 226 224 221 221 222 226 231 231 226 225 225 226 228 225 218 223 226 233 250 236 239 247 240 244 248 247 246 243 246 250 255 258 261 269 272 276
230 229 229 226 219 218 218 220 226 225 220 223 228 231 232 226 222 228 235 247 266 243 223 241 243 250 252 249 238 244 245 249 254 259 266 272 275 277
234 231 229 228 223 220 217 218 225 230 229 231 237 235 229 226 222 217 216 222 243 240 225 231 245 265 263 256 241 234 246 254 257 263 268 271 277 278
228 229 230 231 226 220 218 217 222 224 219 222 230 231 226 220 219 219 216 219 232 238 214 219 235 243 261 256 254 249 252 259 261 265 268 270 272 270
227 227 226 223 225 223 222 223 224 223 217 217 221 224 223 218 219 222 223 220 222 235 214 211 229 234 243 268 271 263 256 260 258 261 261 264 264 258
230 233 227 219 223 224 223 221 219 219 217 213 216 218 219 220 217 214 217 226 239 238 229 232 236 228 238 258 265 268 267 261 259 260 256 256 256 256
250 243 230 222 228 227 224 219 216 214 211 212 215 220 221 216 210 207 208 211 240 248 238 243 239 232 235 244 256 262 267 264 258 256 254 253 249 251
263 249 228 220 225 235 226 225 223 217 215 215 213 214 207 205 209 205 207 206 222 242 246 247 240 231 237 245 246 255 255 250 255 260 259 261 256 247
246 256 255 233 213 209 218 219 220 214 216 217 210 205 203 205 210 207 212 214 219 227 235 237 239 244 246 244 247 248 252 260 258 258 260 258 255 248
256 192 209 211 204 213 218 219 221 230 225 218 212 208 206 208 210 209 213 214 216 223 225 219 215 240 253 254 241 247 252 261 264 260 258 256 258 259
28 100 173 198 196 222 230 228 230 235 234 220 210 215 215 213 212 210 210 214 221 225 226 222 218 219 233 248 250 226 250 268 266 263 263 265 264 268
16 6 292 256 234 227 229 232 236 232 224 223 218 219 220 214 212 213 212 213 220 225 227 224 226 229 236 249 262 270 250 257 260 259 270 283 287 287
358 352 337 312 276 258 250 237 233 232 228 222 222 223 223 219 217 218 218 220 224 224 228 237 245 250 259 257 255 261 268 255 261 261 267 275 283 279
348 339 326 315 294 271 248 230 228 230 228 225 227 229 227 224 222 221 225 224 222 226 236 243 236 238 236 238 251 265 277 288 282 270 257 255 257 258
344 340 329 307 291 284 256 233 230 231 235 233 232 232 226 224 227 225 226 224 221 222 225 232 239 244 245 244 253 262 271 281 283 286 280 282 276 273